Weather in Tyamsha

Russia / Pskov Oblast     57°44′36″N   28°08′59″E
temp.,
°C
wind,
m/s
gust,
m/s
humid.,
%
clouds,
%
prec.,
mm/h
press.,
hPa
HPBL,
m
17 october, sun
sun1700:00+7wsw6138288 0.4 1006802
03:00+7wsw5128528 0.8 1006960
06:00+6wsw6138692 0.1 1007654
09:00+7wsw5128396 0.3 1007825
12:00+9w6106798 0.1 10081363
15:00+10wsw51058100 0.1 10081687
18:00+7wsw486766 0.1 1008277
21:00+5wsw410855 0.1 1009325
18 october, mon
mon1800:00+3wsw39920 0.0 1009250
03:00+2wsw411810 0.0 1009285
06:00+4wsw514715 0.0 1009585
09:00+4w6137110 0.0 1009945
12:00+7wnw7115912 0.0 10101476
15:00+8wnw6105995 0.2 10111500
18:00+6nw4106993 0.1 1012542
21:00+4nw497883 0.4 1014470
19 october, tue
tue1900:00+4nw488051 0.2 1016504
03:00+3wnw498975 0.3 1017484
06:00+3nw498974 0.3 1019570
09:00+2nw5109488 0.5 1020563
12:00+4nw686795 0.3 10221222
15:00+5nnw585460 0.4 10231623
18:00+2nnw37635 0.0 1024169
21:00−1n1172100 0.0 102410
20 october, wed
wed2000:000ssw227284 0.0 102426
03:000s2571100 0.0 1023141
06:000sse4972100 0.0 1020277
09:00+1sse51167100 0.0 1017482
12:00+3sse71578100 0.4 1013672
15:00+4s71587100 2.4 1009643
18:00+4s71590100 1.2 1005660
21:00+6s71694100 6.8 1001757
21 october, thu
thu2100:00+9ssw71696100 0.8 998714
03:00+10ssw71793100 1.4 995767
06:00+11ssw71693100 0.1 993855
09:00+12ssw81691100 0.2 9911065
12:00+12ssw81687100 0.0 9891072
15:00+13sw10198497 0.8 9861509
18:00+11sw7167774 1.0 9881269
21:00+10sw81783100 1.4 9891527